KB3VSP Weather Reports


time (UTC)temp
F
wind
direction
speed
knots
gust
knots
rain 1hr
in
rain 24hr
in
rain mn
in
humidity
%
barometer
mb
20260510032020 53 59 0.0 0.0 0.00 0.50 0.50 99 1009.8
20260510031516 53 60 0.0 0.0 0.00 0.50 0.50 99 1009.8
20260510031012 53 60 0.0 0.0 0.00 0.50 0.50 99 1009.6
20260510030508 53 59 0.0 0.0 0.00 0.50 0.50 99 1009.7
20260510030005 53 59 0.0 0.0 0.00 0.50 0.50 99 1009.9
20260510025502 53 60 0.9 0.9 0.00 0.50 0.50 99 1009.9
20260510024959 53 59 0.9 0.9 0.00 0.50 0.50 99 1010.1
20260510024450 53 60 0.9 0.9 0.00 0.50 0.50 99 1010.0
20260510023946 53 71 0.9 1.7 0.00 0.50 0.50 99 1010.1
20260510023443 53 57 0.9 0.9 0.07 0.50 0.50 99 1010.0
20260510022940 53 67 0.9 0.9 0.19 0.50 0.50 99 1010.1
20260510022438 53 85 1.7 1.7 0.31 0.49 0.49 99 1010.3
20260510021938 53 46 0.0 0.0 0.35 0.47 0.47 99 1011.0
20260510021436 53 48 0.0 0.0 0.28 0.44 0.44 99 1011.1
20260510020932 53 51 0.9 0.9 0.31 0.42 0.42 99 1010.9
20260510020427 53 43 0.0 0.0 0.42 0.40 0.40 99 1010.8
20260510015923 53 11 0.9 0.9 0.40 0.37 0.37 99 1011.0
20260510015419 53 23 0.0 0.0 0.24 0.33 0.33 99 1010.7
20260510014914 53 20 0.0 0.0 0.24 0.30 0.30 99 1010.5
20260510014412 53 0 0.9 0.9 0.66 0.29 0.29 98 1010.2
20260510013909 54 13 1.7 1.7 0.78 0.27 0.27 97 1010.2
20260510013403 55 33 1.7 2.6 0.66 0.21 0.21 94 1010.2
20260510012859 57 197 1.7 1.7 0.24 0.14 0.14 89 1010.5
20260510012354 60 301 3.5 4.3 0.00 0.10 0.10 81 1010.0
20260510011849 62 339 3.5 4.3 0.00 0.10 0.10 73 1009.1
20260510011344 63 42 0.0 0.0 0.00 0.10 0.10 68 1008.1
20260510010840 62 51 0.0 0.0 0.00 0.10 0.10 68 1007.8
20260510010338 62 47 0.0 0.0 0.00 0.10 0.10 67 1007.8
20260510005834 63 62 0.9 0.9 0.00 0.10 0.10 67 1007.8
20260510005331 63 63 0.9 0.9 0.00 0.10 0.10 67 1007.8
20260510004829 63 50 0.0 0.0 0.00 0.10 0.10 67 1007.8
20260510004326 63 63 0.9 0.9 0.00 0.10 0.10 66 1007.6
20260510003823 63 65 0.9 0.9 0.00 0.10 0.10 66 1007.6
20260510003321 63 59 0.0 0.0 0.00 0.10 0.10 65 1007.6
20260510002819 63 70 0.9 0.9 0.00 0.10 0.10 66 1007.6
20260510002317 63 52 0.0 0.0 0.00 0.10 0.10 65 1007.3
20260510001813 64 71 1.7 1.7 0.00 0.10 0.10 65 1007.3
20260510001311 64 36 0.0 0.9 0.00 0.10 0.10 65 1007.4
20260510000806 64 212 2.6 2.6 0.00 0.10 0.10 64 1007.7
20260510000305 64 69 1.7 2.6 0.00 0.10 0.10 65 1007.4
20260509235802 64 89 1.7 1.7 0.00 0.10 0.10 63 1007.2
20260509235258 64 131 2.6 2.6 0.00 0.10 0.10 64 1007.0
20260509234754 65 78 2.6 2.6 0.00 0.10 0.10 63 1007.0
20260509234251 65 83 1.7 1.7 0.00 0.10 0.10 62 1007.2
20260509233749 65 58 0.9 0.9 0.00 0.10 0.10 62 1007.2
20260509233246 66 17 0.9 1.7 0.00 0.10 0.10 62 1006.9
20260509232742 66 75 2.6 2.6 0.00 0.10 0.10 61 1006.9
20260509232240 66 10 1.7 1.7 0.00 0.10 0.10 62 1006.9
20260509231736 66 203 0.9 1.7 0.00 0.10 0.10 62 1006.9
20260509231233 66 56 0.9 1.7 0.00 0.10 0.10 61 1006.9
20260509230730 66 54 0.9 0.9 0.00 0.10 0.10 62 1006.9
20260509230227 67 345 0.9 0.9 0.00 0.10 0.10 61 1007.0
20260509225722 67 58 2.6 2.6 0.00 0.10 0.10 61 1007.0
20260509225218 67 235 1.7 1.7 0.00 0.10 0.10 61 1006.9
20260509224714 67 104 2.6 2.6 0.00 0.10 0.10 61 1007.0
20260509224211 67 43 0.9 0.9 0.00 0.10 0.10 61 1006.9
20260509223708 67 2 0.9 1.7 0.00 0.10 0.10 62 1006.6
20260509223205 67 39 0.9 0.9 0.00 0.10 0.10 62 1006.9
20260509222702 67 133 1.7 2.6 0.00 0.10 0.10 60 1006.6
20260509222158 67 129 2.6 2.6 0.00 0.10 0.10 60 1006.8
20260509221654 67 54 0.0 0.9 0.00 0.10 0.10 61 1006.7
20260509221149 67 146 2.6 4.3 0.00 0.10 0.10 61 1006.9
20260509220646 67 40 0.9 1.7 0.00 0.10 0.10 61 1006.8
20260509220142 67 314 3.5 4.3 0.00 0.10 0.10 61 1006.8
20260509215638 67 3 2.6 2.6 0.00 0.10 0.10 60 1006.6
20260509215135 66 92 2.6 2.6 0.00 0.10 0.10 62 1006.9
20260509214632 67 129 3.5 5.2 0.00 0.10 0.10 63 1007.0
20260509214129 67 226 0.9 2.6 0.00 0.10 0.10 62 1007.0
20260509213626 67 145 2.6 2.6 0.00 0.10 0.10 61 1006.8
20260509213121 67 336 2.6 2.6 0.00 0.10 0.10 63 1007.0
20260509212620 66 296 1.7 2.6 0.00 0.10 0.10 63 1007.3
20260509212116 66 347 2.6 2.6 0.00 0.10 0.10 62 1007.0
20260509211612 65 172 1.7 2.6 0.00 0.10 0.10 63 1007.2
20260509211109 65 51 1.7 1.7 0.00 0.10 0.10 63 1007.2
20260509210605 66 299 2.6 2.6 0.00 0.10 0.10 61 1007.2
20260509205556 65 340 1.7 1.7 0.00 0.10 0.10 65 1007.2
20260509205051 65 300 3.5 4.3 0.00 0.10 0.10 65 1007.2
20260509204548 64 345 2.6 5.2 0.00 0.10 0.10 66 1007.6
20260509204045 64 289 3.5 5.2 0.00 0.10 0.10 67 1007.8
20260509203540 63 133 2.6 2.6 0.00 0.10 0.10 69 1007.7
20260509203039 64 235 2.6 2.6 0.00 0.10 0.10 68 1007.8
20260509202533 64 57 1.7 1.7 0.00 0.10 0.10 67 1007.8
20260509202029 65 155 2.6 2.6 0.00 0.10 0.10 65 1007.4
20260509201524 65 185 1.7 1.7 0.00 0.10 0.10 65 1007.7
20260509201021 65 63 1.7 1.7 0.00 0.10 0.10 66 1007.9
20260509200516 64 114 2.6 4.3 0.00 0.10 0.10 67 1007.9
20260509200012 65 197 2.6 2.6 0.00 0.10 0.10 68 1007.9
20260509195508 63 318 1.7 2.6 0.00 0.10 0.10 68 1008.2
20260509195002 65 208 3.5 4.3 0.00 0.10 0.10 68 1008.4
20260509194457 63 149 2.6 2.6 0.00 0.10 0.10 73 1008.2
20260509193954 63 238 1.7 2.6 0.00 0.10 0.10 73 1008.5
20260509193449 63 333 1.7 2.6 0.00 0.10 0.10 73 1008.3
20260509192945 63 167 0.9 1.7 0.00 0.10 0.10 72 1008.1
20260509192442 62 135 2.6 5.2 0.00 0.10 0.10 75 1008.2
20260509191937 62 328 0.9 1.7 0.00 0.10 0.10 75 1008.3
20260509191432 62 334 0.9 1.7 0.00 0.10 0.10 72 1008.5
20260509190929 62 285 2.6 2.6 0.00 0.10 0.10 72 1008.7
20260509190426 63 354 0.9 0.9 0.00 0.10 0.10 74 1008.5
20260509185924 62 77 1.7 1.7 0.00 0.10 0.10 74 1008.5
20260509185421 63 29 0.9 0.9 0.00 0.10 0.10 75 1008.6
20260509184917 61 38 0.9 1.7 0.00 0.10 0.10 77 1008.6
20260509184415 61 57 0.9 0.9 0.00 0.10 0.10 77 1008.4
20260509183911 61 320 1.7 1.7 0.00 0.10 0.10 77 1008.6
20260509183406 62 43 0.9 0.9 0.00 0.10 0.10 75 1008.8
20260509182902 61 254 1.7 1.7 0.00 0.10 0.10 76 1008.9
20260509182359 61 123 1.7 1.7 0.00 0.10 0.10 77 1008.9
20260509181857 61 255 1.7 2.6 0.00 0.10 0.10 76 1009.0
20260509181354 62 299 4.3 5.2 0.00 0.10 0.10 78 1008.8
20260509180851 61 25 1.7 2.6 0.00 0.10 0.10 77 1008.8
20260509180346 61 336 3.5 4.3 0.00 0.10 0.10 79 1008.9
20260509175844 60 66 0.9 1.7 0.00 0.10 0.10 80 1008.9
20260509175340 60 44 0.9 1.7 0.00 0.10 0.10 81 1008.8
20260509174836 60 15 0.9 1.7 0.00 0.10 0.10 81 1008.8
20260509174332 60 49 0.9 0.9 0.00 0.10 0.10 82 1008.9
20260509173828 58 103 1.7 1.7 0.00 0.10 0.10 85 1008.7
20260509173323 58 107 0.9 1.7 0.00 0.10 0.10 86 1009.1
20260509172820 58 82 0.9 1.7 0.00 0.10 0.10 87 1009.0
20260509172317 57 119 1.7 1.7 0.00 0.10 0.10 88 1008.9
20260509171813 57 8 0.9 0.9 0.00 0.10 0.10 89 1008.9
20260509171308 58 8 0.9 0.9 0.00 0.10 0.10 88 1009.1
20260509170805 57 42 0.0 0.0 0.00 0.10 0.10 88 1009.0
20260509170301 57 8 1.7 1.7 0.00 0.10 0.10 89 1008.7
20260509165800 57 40 0.0 0.9 0.00 0.10 0.10 91 1009.2
20260509165255 56 17 0.0 0.9 0.00 0.10 0.10 93 1009.0
20260509164752 56 7 0.9 0.9 0.00 0.10 0.10 94 1009.0
20260509164248 56 44 0.0 0.0 0.00 0.10 0.10 96 1008.9
20260509163745 56 44 0.0 0.9 0.00 0.10 0.10 97 1009.0
20260509163241 56 42 0.0 0.9 0.00 0.10 0.10 98 1008.7
20260509162739 55 41 0.9 0.9 0.00 0.10 0.10 98 1008.8
20260509162228 56 57 0.9 0.9 0.00 0.10 0.10 99 1008.8
20260509161724 56 19 0.0 0.9 0.00 0.10 0.10 99 1009.0
20260509161220 55 18 0.0 0.9 0.00 0.10 0.10 99 1008.8
20260509160715 55 3 1.7 1.7 0.00 0.10 0.10 99 1009.0
20260509160212 55 30 0.9 0.9 0.00 0.10 0.10 99 1008.9
20260509155707 54 51 0.9 0.9 0.00 0.10 0.10 99 1008.9
20260509155204 53 38 0.0 0.0 0.00 0.10 0.10 99 1008.8
20260509154700 53 66 0.9 0.9 0.00 0.10 0.10 99 1008.8
20260509154157 53 31 0.0 0.0 0.00 0.10 0.10 99 1008.8
20260509153654 53 57 0.9 0.9 0.00 0.10 0.10 99 1009.0
20260509153151 53 65 0.9 0.9 0.00 0.10 0.10 99 1008.7
20260509152646 52 51 0.9 0.9 0.00 0.10 0.10 99 1008.9
20260509152144 52 42 0.0 0.9 0.00 0.10 0.10 99 1008.8
20260509151640 53 50 0.0 0.0 0.00 0.10 0.10 99 1008.7
20260509151137 52 19 0.0 0.0 0.00 0.10 0.10 99 1008.8
20260509150636 52 65 0.9 0.9 0.07 0.10 0.10 99 1008.8
20260509150134 52 105 2.6 2.6 0.07 0.10 0.10 99 1008.8
20260509145630 51 138 1.7 1.7 0.12 0.10 0.10 99 1008.8
20260509145125 51 52 0.9 0.9 0.05 0.09 0.09 99 1009.0
20260509144621 51 44 0.0 0.0 0.00 0.08 0.08 99 1008.9
20260509144119 51 50 0.0 0.0 0.00 0.08 0.08 99 1008.9
20260509143616 51 48 0.0 0.9 0.07 0.08 0.08 99 1009.1
20260509143114 51 77 0.9 0.9 0.12 0.08 0.08 99 1009.0
20260509142608 51 33 0.0 0.9 0.05 0.07 0.07 99 1008.8
20260509142105 51 53 0.0 0.0 0.00 0.06 0.06 99 1009.2
20260509141601 51 58 0.9 0.9 0.00 0.06 0.06 99 1009.0
20260509141058 51 53 0.0 0.0 0.00 0.06 0.06 99 1009.1
20260509140555 51 48 0.0 0.9 0.00 0.06 0.06 99 1009.0
20260509140053 51 52 0.0 0.0 0.00 0.06 0.06 99 1009.2
20260509135550 51 51 0.0 0.0 0.00 0.06 0.06 99 1009.1
20260509135047 51 86 0.9 0.9 0.00 0.06 0.06 99 1008.9
20260509134544 51 45 0.0 0.0 0.00 0.06 0.06 99 1009.2
20260509134042 51 45 0.0 0.0 0.00 0.06 0.06 99 1009.2
20260509133538 51 54 0.0 0.0 0.00 0.06 0.06 99 1009.2
20260509133036 51 55 0.0 0.0 0.07 0.06 0.06 99 1009.2
20260509132534 51 61 0.9 0.9 0.07 0.06 0.06 99 1009.2
20260509132032 51 19 0.0 0.9 0.00 0.05 0.05 99 1009.1
20260509131528 50 34 0.0 0.0 0.00 0.05 0.05 99 1009.1
20260509131025 50 66 1.7 1.7 0.00 0.05 0.05 99 1009.1
20260509130520 50 75 0.9 0.9 0.00 0.05 0.05 99 1009.1
20260509130018 50 46 0.9 0.9 0.05 0.05 0.05 99 1009.4
20260509125514 50 87 0.9 1.7 0.05 0.05 0.05 99 1009.1
20260509125010 50 39 0.0 0.0 0.00 0.04 0.04 99 1009.2
20260509124507 50 46 0.0 0.0 0.07 0.04 0.04 99 1009.4
20260509124004 50 17 0.0 0.0 0.07 0.04 0.04 99 1009.4
20260509123502 50 44 0.0 0.0 0.05 0.03 0.03 99 1009.2
20260509122958 50 88 0.9 1.7 0.05 0.03 0.03 99 1009.3
20260509122455 50 44 0.0 0.0 0.00 0.02 0.02 99 1009.2
20260509121952 50 60 0.0 0.0 0.00 0.02 0.02 99 1009.4
20260509121448 50 62 0.9 0.9 0.00 0.02 0.02 99 1009.4
20260509120946 50 44 0.0 0.0 0.00 0.02 0.02 99 1009.4
20260509120444 50 54 0.0 0.9 0.00 0.02 0.02 99 1009.1
20260509115942 50 67 0.9 0.9 0.00 0.02 0.02 99 1009.2
20260509115439 50 51 0.0 0.0 0.00 0.02 0.02 99 1009.1
20260509114936 50 50 0.0 0.0 0.00 0.02 0.02 99 1009.3
20260509114435 49 57 0.9 0.9 0.00 0.02 0.02 99 1009.2
20260509113934 49 49 0.0 0.0 0.00 0.02 0.02 99 1009.3
20260509113431 49 53 0.0 0.0 0.00 0.02 0.02 99 1009.4
20260509112927 49 52 0.0 0.0 0.00 0.02 0.02 99 1009.4
20260509112425 49 56 0.0 0.0 0.00 0.02 0.02 99 1009.5
20260509111921 49 52 0.0 0.0 0.00 0.02 0.02 99 1009.2
20260509111419 49 50 0.0 0.0 0.00 0.02 0.02 99 1009.2
20260509110916 49 49 0.0 0.0 0.00 0.02 0.02 99 1008.9
20260509110412 49 48 0.0 0.0 0.00 0.02 0.02 99 1009.0
20260509105910 49 49 0.0 0.0 0.00 0.02 0.02 99 1009.1
20260509105409 49 50 0.0 0.0 0.00 0.02 0.02 99 1009.0
20260509104905 48 42 0.0 0.0 0.00 0.02 0.02 99 1009.1
20260509104402 48 42 0.0 0.0 0.00 0.02 0.02 99 1008.9
20260509103859 48 42 0.0 0.0 0.00 0.02 0.02 99 1009.0
20260509103356 48 42 0.0 0.0 0.00 0.02 0.02 99 1009.0
20260509102855 48 42 0.0 0.0 0.00 0.02 0.02 99 1009.0
20260509102352 48 42 0.0 0.0 0.00 0.02 0.02 99 1008.9
20260509101848 48 36 0.0 0.0 0.00 0.02 0.02 99 1009.0
20260509101344 48 37 0.0 0.0 0.00 0.02 0.02 99 1009.2
20260509100842 48 36 0.0 0.9 0.00 0.02 0.02 99 1009.0
20260509100339 48 36 0.0 0.0 0.00 0.02 0.02 99 1009.0
20260509095836 48 36 0.0 0.0 0.00 0.02 0.02 99 1009.1
20260509095333 48 36 0.0 0.0 0.00 0.02 0.02 99 1008.8
20260509094830 48 35 0.0 0.0 0.00 0.02 0.02 99 1009.1
20260509094326 48 35 0.0 0.9 0.00 0.02 0.02 99 1009.1
20260509093824 48 35 0.0 0.0 0.00 0.02 0.02 99 1009.2
20260509093321 48 34 0.0 0.0 0.00 0.02 0.02 99 1009.4
20260509092820 48 34 0.0 0.0 0.00 0.02 0.02 99 1009.4
20260509092317 48 35 0.0 0.0 0.00 0.02 0.02 99 1009.5
20260509091815 48 35 0.0 0.0 0.07 0.02 0.02 99 1009.5
20260509091312 48 35 0.0 0.0 0.07 0.02 0.02 99 1009.4
20260509090809 48 35 0.0 0.0 0.07 0.02 0.02 99 1009.4
20260509090306 48 35 0.0 0.0 0.00 0.01 0.01 99 1009.5
20260509085803 48 35 0.0 0.0 0.00 0.01 0.01 99 1009.5
20260509085301 48 34 0.0 0.0 0.00 0.01 0.01 99 1009.9
20260509084757 48 20 0.0 0.0 0.00 0.01 0.01 99 1009.7
20260509084254 48 40 0.0 0.0 0.00 0.01 0.01 99 1009.5
20260509083752 48 40 0.0 0.0 0.00 0.01 0.01 99 1009.9
20260509083248 48 40 0.0 0.0 0.00 0.01 0.01 99 1009.8
20260509082745 48 40 0.0 0.0 0.00 0.01 0.01 99 1009.9
20260509082241 48 40 0.0 0.0 0.00 0.01 0.01 99 1009.9
20260509081739 48 40 0.0 0.0 0.00 0.01 0.01 99 1009.8
20260509081236 48 40 0.0 0.0 0.00 0.01 0.01 99 1010.0
20260509080734 48 41 0.0 0.0 0.00 0.01 0.01 99 1009.7
20260509080231 48 41 0.0 0.0 0.00 0.01 0.01 99 1009.8
20260509075729 48 41 0.0 0.0 0.00 0.01 0.01 99 1009.9
20260509075227 48 41 0.0 0.0 0.00 0.01 0.01 99 1009.8
20260509074723 48 41 0.0 0.0 0.00 0.01 0.01 99 1009.9
20260509074221 48 40 0.0 0.0 0.00 0.01 0.01 99 1009.8
20260509073717 48 41 0.0 0.0 0.00 0.01 0.01 99 1009.7
20260509073214 48 41 0.0 0.0 0.00 0.01 0.01 99 1010.0
20260509072710 48 41 0.0 0.0 0.05 0.01 0.01 99 1009.8
20260509072207 48 20 0.0 0.0 0.05 0.01 0.01 99 1010.0
20260509071703 48 20 0.0 0.0 0.00 0.00 0.00 99 1010.0
20260509071201 48 19 0.0 0.0 0.00 0.00 0.00 99 1010.0
20260509070658 48 20 0.0 0.0 0.00 0.00 0.00 99 1009.9
20260509070154 48 20 0.0 0.0 0.00 0.00 0.00 99 1009.8
20260509065650 48 20 0.0 0.0 0.00 0.00 0.00 99 1009.8
20260509065147 48 20 0.0 0.0 0.00 0.00 0.00 99 1009.5
20260509064644 48 19 0.0 0.0 0.00 0.00 0.00 99 1009.7
20260509064141 48 19 0.0 0.0 0.00 0.00 0.00 99 1009.8
20260509063638 48 19 0.0 0.0 0.00 0.00 0.00 99 1009.9
20260509063135 48 19 0.0 0.0 0.00 0.00 0.00 99 1009.8
20260509062632 48 19 0.0 0.0 0.00 0.00 0.00 99 1010.0
20260509062129 48 19 0.0 0.0 0.00 0.00 0.00 99 1010.0
20260509061626 48 19 0.0 0.0 0.00 0.00 0.00 99 1010.1
20260509061123 48 19 0.0 0.0 0.00 0.00 0.00 99 1010.2
20260509060621 48 19 0.0 0.0 0.00 0.00 0.00 99 1010.1
20260509060116 48 19 0.0 0.9 0.00 0.00 0.00 99 1010.3
20260509055612 48 19 0.0 0.0 0.00 0.00 0.00 99 1010.5
20260509055108 48 19 0.0 0.0 0.00 0.00 0.00 99 1010.2
20260509054605 48 19 0.0 0.0 0.00 0.00 0.00 99 1010.3
20260509054103 48 19 0.0 0.0 0.00 0.00 0.00 99 1010.4
20260509053601 48 19 0.0 0.0 0.00 0.00 0.00 99 1010.5
20260509053058 48 19 0.0 0.0 0.00 0.00 0.00 99 1010.7
20260509052556 48 19 0.0 0.0 0.00 0.00 0.00 99 1010.8
20260509052053 48 19 0.0 0.0 0.00 0.00 0.00 99 1010.9
20260509051551 48 19 0.0 0.0 0.00 0.00 0.00 99 1010.9
20260509051048 48 19 0.0 0.0 0.00 0.00 0.00 99 1011.0
20260509050545 48 19 0.0 0.0 0.00 0.00 0.00 99 1011.2
20260509050041 48 19 0.0 0.0 0.00 0.08 0.08 99 1011.0
20260509045539 48 19 0.0 0.0 0.00 0.08 0.08 99 1011.1
20260509045035 48 19 0.0 0.0 0.00 0.08 0.08 99 1011.0
20260509044533 48 19 0.0 0.0 0.00 0.08 0.08 99 1010.9
20260509044030 48 19 0.0 0.0 0.00 0.08 0.08 99 1011.1
20260509043526 48 19 0.0 0.0 0.00 0.08 0.08 99 1011.2
20260509043022 48 19 0.0 0.0 0.00 0.08 0.08 99 1011.2
20260509042518 48 19 0.0 0.0 0.00 0.08 0.08 99 1011.4
20260509042009 48 19 0.0 0.0 0.00 0.08 0.08 99 1011.4
20260509041506 48 19 0.0 0.0 0.00 0.08 0.08 99 1011.4
20260509041004 48 19 0.0 0.0 0.00 0.08 0.08 99 1011.3
20260509040502 48 19 0.0 0.0 0.00 0.08 0.08 99 1011.5
20260509035957 48 19 0.0 0.0 0.00 0.08 0.08 99 1011.5
20260509035455 48 19 0.0 0.0 0.00 0.08 0.08 99 1011.8
20260509034951 48 19 0.0 0.0 0.00 0.08 0.08 99 1011.8
20260509034450 48 19 0.0 0.0 0.07 0.08 0.08 99 1012.0
20260509033946 48 19 0.0 0.0 0.07 0.08 0.08 99 1011.9
20260509033443 49 19 0.0 0.0 0.00 0.07 0.07 99 1012.0
20260509032940 49 19 0.0 0.0 0.00 0.07 0.07 99 1012.0
20260509032437 49 19 0.0 0.0 0.00 0.07 0.07 99 1012.1